Indianapolis, IN

4:53 AM EDT on May 30, 2017 (GMT -0400)
Indianapolis Terry

Weather History for KTYQ - November, 2011

Change the Weather History Date:

Sunday, November 6, 2011

  Actual Average (KEYE) Record (KEYE)
Temperature  
Mean Temperature 52 °F -  
Max Temperature 63 °F 52 °F 72 °F (2008)
Min Temperature 40 °F 36 °F 26 °F (2012)
Degree Days  
Heating Degree Days 14    
Growing Degree Days 2 (Base 50)    
Moisture  
Dew Point 38 °F    
Average Humidity 63    
Maximum Humidity 81    
Minimum Humidity 46    
Precipitation  
Precipitation 0.00 in - - ()
Sea Level Pressure  
Sea Level Pressure 30.18 in    
Wind  
Wind Speed 10 mph (South)    
Max Wind Speed 21 mph    
Max Gust Speed 25 mph    
Visibility 10 miles    
Events      
Averages and records for this station are not official NWS values.
T = Trace of Precipitation, MM = Missing Value Source: NWS Daily Summary

Daily Weather History Graph

Daily Weather History Graph

Search for Another Location

Airport or City:

Trip Planner

Search our weather history database for the weather conditions in past years. The results will help you decide how hot, cold, wet, or windy it might be!

Date:

Astronomy

Nov. 06, 2011 Rise Set
Actual Time 7:19 AM EST 5:37 PM EST
Civil Twilight 6:51 AM EST 6:05 PM EST
Nautical Twilight 6:18 AM EST 6:37 PM EST
Astronomical Twilight 5:47 AM EST 7:09 PM EST
Moon 3:21 PM EST (11/6) 3:25 AM EST (11/6)
Length of Visible Light 11h 14m
Length of Day
10h 17m
Waxing Gibbous, 85% of the Moon is Illuminated
Nov 6
Waxing Gibbous
Nov 10
Full
Nov 18
Last Quarter
Nov 25
New
Dec 2
First Quarter

Hourly Weather History & Observations

Time (EST) Temp. Windchill Dew Point Humidity Pressure Visibility Wind Dir Wind Speed Gust Speed Precip Events Conditions
12:15 AM 42.8 °F 38.0 °F 32.9 °F 68% 30.16 in 10.0 mi SSE 8.1 mph - N/A   Clear
12:35 AM 43.3 °F 38.6 °F 33.3 °F 68% 30.15 in 10.0 mi SSE 8.1 mph - N/A   Clear
12:55 AM 43.5 °F 38.3 °F 33.4 °F 68% 30.15 in 10.0 mi SSE 9.2 mph - N/A   Clear
1:15 AM 43.9 °F 38.8 °F 33.4 °F 67% 30.14 in 10.0 mi SSE 9.2 mph - N/A   Clear
1:35 AM 43.7 °F 39.1 °F 33.8 °F 68% 30.14 in 10.0 mi SSE 8.1 mph - N/A   Clear
1:55 AM 43.2 °F 39.0 °F 33.3 °F 68% 30.14 in 10.0 mi SSE 6.9 mph - N/A   Clear
1:15 AM 41.5 °F 37.1 °F 32.9 °F 71% 30.14 in 10.0 mi SSE 6.9 mph - N/A   Clear
1:35 AM 41.5 °F 37.1 °F 33.3 °F 72% 30.14 in 10.0 mi SSE 6.9 mph - N/A   Clear
1:55 AM 41.0 °F 38.0 °F 32.5 °F 72% 30.15 in 10.0 mi SSE 4.6 mph - N/A   Clear
2:15 AM 40.3 °F 37.1 °F 32.5 °F 74% 30.15 in 10.0 mi SSE 4.6 mph - N/A   Clear
2:35 AM 40.6 °F 36.7 °F 32.9 °F 74% 30.16 in 10.0 mi SSE 5.8 mph - N/A   Clear
2:55 AM 40.5 °F 35.8 °F 32.9 °F 74% 30.16 in 10.0 mi SSE 6.9 mph - N/A   Clear
3:15 AM 41.4 °F 37.6 °F 33.6 °F 74% 30.17 in 10.0 mi SSE 5.8 mph - N/A   Clear
3:35 AM 40.1 °F 36.1 °F 33.3 °F 77% 30.17 in 10.0 mi SSE 5.8 mph - N/A   Clear
3:55 AM 40.3 °F 35.5 °F 33.6 °F 77% 30.17 in 10.0 mi SSE 6.9 mph - N/A   Clear
4:15 AM 40.8 °F 36.9 °F 33.8 °F 76% 30.18 in 10.0 mi SSE 5.8 mph - N/A   Clear
4:35 AM 40.1 °F 35.3 °F 33.8 °F 78% 30.19 in 10.0 mi SSE 6.9 mph - N/A   Clear
4:55 AM 41.0 °F 37.1 °F 34.9 °F 79% 30.19 in 10.0 mi SSE 5.8 mph - N/A   Clear
5:15 AM 40.5 °F 35.8 °F 34.7 °F 80% 30.20 in 10.0 mi SSE 6.9 mph - N/A   Clear
5:35 AM 41.9 °F 37.5 °F 36.5 °F 81% 30.20 in 10.0 mi South 6.9 mph - N/A   Clear
5:55 AM 44.1 °F 39.5 °F 37.8 °F 78% 30.20 in 10.0 mi South 8.1 mph - N/A   Clear
6:15 AM 44.6 °F 40.2 °F 37.9 °F 77% 30.20 in 10.0 mi South 8.1 mph - N/A   Clear
6:35 AM 44.2 °F 40.3 °F 37.8 °F 78% 30.21 in 10.0 mi South 6.9 mph - N/A   Clear
6:55 AM 44.6 °F 39.7 °F 38.3 °F 79% 30.21 in 10.0 mi South 9.2 mph - N/A   Clear
7:15 AM 44.6 °F 39.2 °F 38.5 °F 79% 30.22 in 10.0 mi South 10.4 mph - N/A   Clear
7:35 AM 44.6 °F 39.2 °F 38.7 °F 80% 30.22 in 10.0 mi South 10.4 mph - N/A   Clear
7:55 AM 45.0 °F 39.7 °F 39.2 °F 80% 30.23 in 10.0 mi South 10.4 mph - N/A   Clear
8:15 AM 46.2 °F 40.8 °F 39.4 °F 77% 30.23 in 10.0 mi South 11.5 mph - N/A   Clear
8:35 AM 47.8 °F - 39.2 °F 72% 30.23 in 10.0 mi South 11.5 mph 18.4 mph N/A   Clear
8:55 AM 48.6 °F - 39.2 °F 70% 30.23 in 10.0 mi South 13.8 mph 18.4 mph N/A   Clear
9:15 AM 50.0 °F - 38.8 °F 66% 30.23 in 10.0 mi South 16.1 mph 23.0 mph N/A   Clear
9:55 AM 51.8 °F - 38.5 °F 60% 30.23 in 10.0 mi South 13.8 mph 24.2 mph N/A   Clear
10:15 AM 52.9 °F - 38.3 °F 58% 30.22 in 10.0 mi South 17.3 mph 21.9 mph N/A   Clear
10:35 AM 54.9 °F - 38.3 °F 54% 30.22 in 10.0 mi South 20.7 mph 25.3 mph N/A   Clear
10:55 AM 56.3 °F - 38.8 °F 52% 30.22 in 10.0 mi South 18.4 mph 24.2 mph N/A   Clear
11:15 AM 57.4 °F - 38.7 °F 50% 30.22 in 10.0 mi South 16.1 mph 23.0 mph N/A   Clear
11:35 AM 58.1 °F - 38.7 °F 48% 30.22 in 10.0 mi South 13.8 mph 24.2 mph N/A   Clear
11:55 AM 59.2 °F - 39.0 °F 47% 30.21 in 10.0 mi SSW 19.6 mph 23.0 mph N/A   Clear
12:15 PM 59.4 °F - 39.2 °F 47% 30.21 in 10.0 mi South 17.3 mph 21.9 mph N/A   Clear
12:35 PM 60.3 °F - 39.7 °F 47% 30.19 in 10.0 mi South 16.1 mph 19.6 mph N/A   Clear
12:55 PM 60.8 °F - 39.9 °F 46% 30.19 in 10.0 mi South 15.0 mph 21.9 mph N/A   Clear
1:15 PM 61.3 °F - 40.5 °F 46% 30.18 in 10.0 mi South 17.3 mph 21.9 mph N/A   Clear
1:35 PM 62.4 °F - 41.2 °F 46% 30.17 in 10.0 mi South 17.3 mph - N/A   Clear
1:55 PM 63.0 °F - 41.9 °F 46% 30.16 in 10.0 mi South 16.1 mph - N/A   Clear
2:15 PM 63.5 °F - 42.3 °F 46% 30.16 in 10.0 mi South 16.1 mph - N/A   Clear
2:35 PM 63.5 °F - 42.4 °F 46% 30.15 in 10.0 mi South 17.3 mph 20.7 mph N/A   Mostly Cloudy
2:55 PM 62.2 °F - 42.1 °F 48% 30.15 in 10.0 mi South 18.4 mph - N/A   Overcast
3:15 PM 61.7 °F - 42.4 °F 49% 30.15 in 10.0 mi South 13.8 mph 21.9 mph N/A   Overcast
3:35 PM 61.7 °F - 42.6 °F 50% 30.15 in 10.0 mi South 13.8 mph 19.6 mph N/A   Overcast
3:55 PM 61.9 °F - 42.8 °F 50% 30.16 in 10.0 mi South 12.7 mph 23.0 mph N/A   Overcast
4:15 PM 61.2 °F - 42.6 °F 51% 30.16 in 10.0 mi South 10.4 mph 17.3 mph N/A   Overcast
4:35 PM 60.8 °F - 42.3 °F 50% 30.16 in 10.0 mi South 9.2 mph 19.6 mph N/A   Overcast
4:55 PM 60.8 °F - 42.4 °F 51% 30.16 in 10.0 mi South 15.0 mph 19.6 mph N/A   Overcast
5:15 PM 60.8 °F - 42.3 °F 50% 30.16 in 10.0 mi South 15.0 mph 19.6 mph N/A   Overcast
5:35 PM 60.3 °F - 42.8 °F 53% 30.16 in 10.0 mi South 9.2 mph - N/A   Overcast
6:15 PM 59.9 °F - 42.4 °F 52% 30.16 in 10.0 mi South 11.5 mph - N/A   Overcast
6:35 PM 59.9 °F - 42.3 °F 52% 30.17 in 10.0 mi South 9.2 mph 18.4 mph N/A   Overcast
6:55 PM 59.5 °F - 42.1 °F 52% 30.18 in 10.0 mi South 11.5 mph - N/A   Overcast
7:15 PM 59.4 °F - 42.1 °F 53% 30.18 in 10.0 mi South 9.2 mph - N/A   Overcast
7:35 PM 59.4 °F - 42.4 °F 54% 30.19 in 10.0 mi South 12.7 mph 16.1 mph N/A   Overcast
7:55 PM 59.2 °F - 42.1 °F 53% 30.18 in 10.0 mi South 11.5 mph 17.3 mph N/A   Overcast
8:15 PM 58.6 °F - 42.3 °F 55% 30.19 in 10.0 mi South 11.5 mph 17.3 mph N/A   Overcast
8:35 PM 58.5 °F - 41.9 °F 54% 30.19 in 10.0 mi South 11.5 mph 17.3 mph N/A   Overcast
8:55 PM 58.3 °F - 41.9 °F 54% 30.19 in 10.0 mi South 13.8 mph - N/A   Overcast
9:15 PM 58.1 °F - 41.9 °F 55% 30.19 in 10.0 mi South 12.7 mph - N/A   Overcast
9:35 PM 58.1 °F - 41.9 °F 55% 30.19 in 10.0 mi South 10.4 mph - N/A   Overcast
9:55 PM 58.1 °F - 41.9 °F 55% 30.19 in 10.0 mi South 10.4 mph 17.3 mph N/A   Overcast
10:15 PM 58.1 °F - 41.9 °F 55% 30.20 in 10.0 mi South 12.7 mph 19.6 mph N/A   Overcast
10:35 PM 58.3 °F - 41.9 °F 54% 30.20 in 10.0 mi South 12.7 mph 18.4 mph N/A   Overcast
10:55 PM 58.3 °F - 41.9 °F 54% 30.20 in 10.0 mi South 15.0 mph 18.4 mph N/A   Overcast